Starlink 35269

operational
NORAD ID: 65593 Int'l Des: 2025-207 Owner: SPXS Country: US Constellation: starlink
NOTLE

About Starlink 35269

Description loading...

Live Position

Loading 3D Globe...

Upcoming Passes

Altitude History

Altitude vs Time

uPlot chart will show altitude changes over time

Two-Line Element Set

1 65593U 25207B 25354.83335647 -.02664270 00000-0 -11136+0 0 9992
2 65593 97.6025 60.8890 0001590 62.3405 245.2519 15.27425188 5775
Epoch: Dec 20, 2025 • Age: 6 hours

Current Status

Altitude 508.8 km
Velocity 7.61 km/s
Sub-Earth Point -51.02°S, 112.4°E
Launch Date Sep 13, 2025
Age 0.2 years
Type internet

Technical Details

Classification Payload
Mass 575.00 kg
Dry Mass 530.00 kg
Total Mass 575.00 kg
Length 0.30 m
Diameter 4.10 m
Span 29.00 m
Shape Box + pan
Manufacturer SPXS
Bus Type Starlink V2MO
Phase Status In Orbit
Owner/State SPXS/US

Large Constellations

Loading constellations...